Weather Roundup
Issued by NWS Springfield, MO

Home | Current Version | Previous Version | Text Only | Print | Product List | Glossary On
Versions: 1 2 3 4 5 6 7 8 9 10 11 12 13 14 15 16 17 18 19 20 21 22 23 24 25 26 27 28 29 30 31 32 33 34 35 36 37 38 39 40 41 42 43 44 45 46 47 48 49 50
000
NZUS99 KSGF 030159
HRRSGF

HOURLY WEATHER
NATIONAL WEATHER SERVICE SPRINGFIELD MO
900 PM CDT THU JUL 02 2015

......SGF CWA......

CITY           SKY/WX    TMP DP  RH WIND       PRES   REMARKS
SPRINGFIELD    CLOUDY    76  71  85 N3        29.90R
JOPLIN         MOCLDY    75  72  90 CALM      29.92R FOG
WEST PLAINS    MOCLDY    77  71  82 CALM      29.89R
ROLLA          CLOUDY    70  67  90 N6        29.88F
OSAGE BEACH    CLOUDY    72  66  83 CALM      29.89R
BRANSON        MOCLDY    73  70  88 W5        29.91R

......SURROUNDING SGF CWA......

CITY           SKY/WX    TMP DP  RH WIND       PRES   REMARKS
CHANUTE        PTCLDY    74  72  93 SE6       29.90R
PARSONS        MOCLDY    76  73  91 CALM      29.92R
COFFEYVILLE    PTCLDY    78  68  71 W3        29.90R
EMPORIA        PTCLDY    75  70  84 NE3       29.90R
GROVE OK       MOCLDY    77  68  73 S9G20     29.93R
SILOAM SPRINGS CLOUDY    68  63  83 SW6         N/A
HARRISON AR    CLOUDY    70  66  87 W6        29.91R
NEAR YELLVILLE MOCLDY    73  64  73 S5        29.86S

......KANSAS AND MISSOURI......

CITY           SKY/WX    TMP DP  RH WIND       PRES   REMARKS
KANSAS CTY INT MOCLDY    68  67  96 NE8       29.89F FOG
DOWNTOWN KC    CLOUDY    70  67  90 E9        29.88F
COLUMBIA       CLOUDY    71  62  73 NE8       29.91R
SEDALIA        CLOUDY    72  66  81 NE5       29.91S
ST JOSEPH      CLOUDY    70  66  87 NE3       29.91S
ST LOUIS       CLOUDY    73  61  65 NE9       29.91R
SPIRIT OF STL  CLOUDY    72  63  73 NE9       29.89R
KIRKSVILLE     CLOUDY    65  60  84 CALM      29.95R
WICHITA        PTCLDY    77  67  71 N3        29.92R
TOPEKA         CLOUDY    73  69  87 NE6       29.90R
OLATHE         MOCLDY    69  66  90 E7        29.89S

......TENNESSEE......

CITY           SKY/WX    TMP DP  RH WIND       PRES   REMARKS
MEMPHIS        CLOUDY    84  69  60 SW12      29.85F
NASHVILLE      CLOUDY    77  73  87 SW7       29.87S

......ARKANSAS.......

CITY           SKY/WX    TMP DP  RH WIND       PRES   REMARKS
FAYETTEVILLE   LGT RAIN  69  67  93 CALM      29.95R
FT SMITH       CLOUDY    79  72  79 W7        29.89R THUNDER
LITTLE ROCK    CLOUDY    85  67  54 SW14G21   29.87S

......OKLAHOMA.......

CITY           SKY/WX    TMP DP  RH WIND       PRES   REMARKS
TULSA          CLOUDY    74  71  91 SE7       29.90R THUNDER
PONCA CITY     MOCLDY    80  70  71 SE7       29.91R
MCALESTER      CLOUDY    82  71  69 S7        29.89R
OKLAHOMA CITY  TSTM      78  73  84 SE8       29.89S

......IOWA............

CITY           SKY/WX    TMP DP  RH WIND       PRES   REMARKS
DES MOINES     CLOUDY    67  54  63 VRB3      29.97R
QUAD CITIES    CLOUDY    68  56  65 NE3       29.96R

......ILLINOIS........

CITY           SKY/WX    TMP DP  RH WIND       PRES   REMARKS
QUINCY         CLOUDY    66  61  84 CALM      29.93R
CHICAGO        CLOUDY    59  49  69 NE8       29.99R




USA.gov is the U.S. government's official web portal to all federal, state and local government web resources and services.